Location: Taupo
(38.6830°S, 176.0830°E)
Time: 02:33:21
(UTC+13:00)

NOSS 3-2 (C) - Pass Details

Date: 24 January 2019
Orbit: 839 x 1373 km, 63.4° (Epoch: 17 February)

Event Time Altitude Azimuth Distance (km) Brightness Sun altitude
Exits shadow 23:03:16 38° 30° (NNE) 1,908 4.5 -22.9°
Maximum altitude 23:05:22 45° 65° (ENE) 1,717 4.3 -23.2°
Drops below altitude 10° 23:12:41 10° 135° (SE) 3,186 6.3 -24.0°
Sets 23:15:26 0° 140° (SE) 4,083 6.9 -24.3°
